Regional Weather Roundup
Issued by NWS

Home | Current Version | Previous Version | Text Only | Print | Product List | Glossary Off
Versions: 1 2 3 4 5 6 7 8 9 10 11 12 13 14 15 16 17 18 19 20 21 22 23 24 25 26 27 28 29 30 31 32 33 34 35 36 37 38 39 40 41 42 43 44 45 46 47 48 49 50

000
ASUS43 KDMX 010207
RWRIA

WEATHER ROUNDUP FOR IOWA
NATIONAL WEATHER SERVICE DES MOINES IA
800 PM CST SAT FEB 28 2015

NOTE: "FAIR" INDICATES FEW OR NO CLOUDS BELOW 12,000 FEET WITH NO
SIGNIFICANT WEATHER AND/OR OBSTRUCTIONS TO VISIBILITY.

* - THESE STATIONS ARE NOT NWS STATIONS...THUS NOT UNDER NWS
QUALITY CONTROL.  THEY ALSO DO NOT REPORT WEATHER SUCH
AS PRECIPITATION OR FOG.

IAZ001>003-012>014-020>022-031>034-043>046-010300-
   NORTHWEST IOWA

CITY           SKY/WX    TMP DP  RH WIND       PRES   REMARKS
CARROLL *      CLOUDY    19  16  86 S8        30.35S WCI   9
CHEROKEE *     CLOUDY    21  16  79 S10       30.32R WCI  10
DENISON *      CLOUDY    19  16  86 S8        30.33R WCI   9
LE MARS *      CLEAR     19  14  79 S12       30.30R WCI   7
ORANGE CITY *  CLEAR     18  12  79 S10       30.27S WCI   6
SHELDON *      CLEAR     14  10  85 S13       30.26S WCI   0
SIOUX CITY     CLEAR     21  14  74 S12       30.32R WCI   9
SPENCER        CLEAR     14   8  77 S9        30.30R WCI   2
STORM LAKE *   FLURRIES  19  14  79 S15       30.31S WCI   5
$$

IAZ055>058-069>071-079>083-090>094-010300-
   SOUTHWEST IOWA

CITY           SKY/WX    TMP DP  RH WIND       PRES   REMARKS
ATLANTIC *     FLURRIES  21  18  86 S5        30.36R WCI  15
AUDUBON *      FLURRIES  19  16  86 CALM      30.35S
CLARINDA *     CLOUDY    21  18  86 S3        30.39S
COUNCIL BLFS * CLOUDY    21  21 100 S8        30.33S WCI  12
CRESTON *      CLOUDY    21  19  93 SE7       30.36F WCI  13
HARLAN  *      FLURRIES  19  19 100 S5        30.38S WCI  13
LAMONI         CLEAR     18  15  88 S5        30.38S WCI  11
RED OAK *      CLOUDY    23  18  80 S9        30.37S WCI  13
SHENANDOAH *   CLOUDY    21  19  93 S5        30.38S WCI  15
$$

IAZ047>049-059>061-072>074-084-010300-
   CENTRAL IOWA

CITY           SKY/WX    TMP DP  RH WIND       PRES   REMARKS
AMES           MOCLDY    15  11  83 SE3       30.39S
ANKENY *       CLOUDY    19  18  93 SE8       30.40F WCI   9
CHARITON *     CLOUDY    19  18  93 SE10      30.39F WCI   8
DES MOINES     FLURRIES  22  18  85 SE6       30.39F WCI  14
GRINNELL*      FLURRIES  12  10  92 E5        30.41S WCI   4
KNOXVILLE *    CLOUDY    19  14  79 SE7       30.40R WCI  10
MARSHALLTOWN   PTCLDY    11   8  88 SE6       30.40S WCI   1
PELLA *        PTCLDY    16  14  93 SE3       30.44R
PERRY *          N/A     19  18  93 SE7       30.37F WCI  10
$$

IAZ004>006-015-016-023>025-035-036-010300-
   NORTH CENTRAL IOWA

CITY           SKY/WX    TMP DP  RH WIND       PRES   REMARKS
ALGONA *       CLOUDY    16  10  79 SE13      30.34F WCI   2
CLARION *      CLEAR     10   9  92 SE13      30.36F WCI  -5
ESTHERVILLE    PTCLDY    16  10  77 S15       30.30S WCI   1
FORT DODGE *   CLOUDY    18  10  73 SE7       30.36S WCI   8
MASON CITY     CLEAR     10   3  73 S12       30.38F WCI  -5
FOREST CITY *  CLEAR      9   3  78 SE10      30.36S WCI  -6
IOWA FALLS *   MOCLDY    10   7  85 SE6       30.39S FOG     WCI   1
$$

IAZ007>011-017>019-026>030-037>042-050>054-066-010300-
   NORTHEAST IOWA

CITY           SKY/WX    TMP DP  RH WIND       PRES   REMARKS
CEDAR RAPIDS   LGT SNOW  12   9  87 SE6       30.43F WCI   3
CHARLES CITY * CLOUDY    10   3  72 SE12      30.40S WCI  -4
CLINTON *      CLOUDY    12   9  85 E7        30.50F WCI   2
DECORAH *      CLOUDY    12   1  62 S9        30.39F WCI   0
DUBUQUE        CLOUDY    11   7  84 SE8       30.44F FOG     WCI  -1
MONTICELLO *   CLOUDY    12   9  85 SE8       30.45F WCI   1
OELWEIN *      CLOUDY     9   1  72 SE9       30.43S WCI  -5
WATERLOO       CLOUDY    12   7  80 SE8       30.42F WCI   0
$$

IAZ064-065-067-068-078-010300-
   EAST CENTRAL IOWA

CITY           SKY/WX    TMP DP  RH WIND       PRES   REMARKS
DAVENPORT      CLOUDY    13   8  81 E7        30.48F WCI   3
IOWA CITY      CLOUDY    15  12  88 E5        30.48S WCI   8
MT. PLEASANT * LGT SNOW  16  12  86 E6        30.45F WCI   7
MUSCATINE *    CLOUDY    18  14  86 E6        30.49S FOG     WCI   9
QUAD CITIES    LGT SNOW  16  11  80 E8        30.48F WCI   5
$$

IAZ062-063-075>077-085>089-095>099-010300-
   SOUTHEAST IOWA

CITY           SKY/WX    TMP DP  RH WIND       PRES   REMARKS
BURLINGTON     CLOUDY    19  17  92 SE3       30.45F FOG
FAIRFIELD *    MOCLDY    12   9  85 E5        30.45S WCI   4
FORT MADISON * LGT SNOW  18  16  93 SE5       30.46S WCI  11
KEOKUK *       CLOUDY    19  18  93 E8        30.45S WCI   9
OSKALOOSA *      N/A     12  10  92 SE7       30.44S WCI   2
CENTERVILLE *  PTCLDY    16  14  93 E5        30.42S WCI   9
OTTUMWA        CLEAR     11   8  88 SE8       30.43S WCI  -1
WASHINGTON *   CLOUDY    12  14 100 SE7       30.45F WCI   2
$$

ABBREVIATIONS USED IN REMARKS
   TC - TEMPERATURES IN CELSIUS
  WCI - WIND CHILL INDEX
   HX - HEAT INDEX
  VSB - VISIBILITY
$$




USA.gov is the U.S. government's official web portal to all federal, state and local government web resources and services.